Temp_Advection
nan nan nan nan nan nan nan nan nan nan nan nan nan nan nan nan nan nan nan nan nan nan nan nan nan nan nan nan nan nan nan nan nan nan nan nan nan nan nan nan nan nan nan nan nan
nan -0 -0 -0 -0 -0 -0 -0 0 -0 0 0 -0 0 0 0 0 0 0 0 0 0 0 0 -0 -0 -0 -0 -0 -1 0 -0 -0 -0 0 0 0 0 -0 -0 0 -0 -0 0 nan
nan -0 -0 -0 -0 -0 -0 0 -0 0 -0 0 0 0 0 0 -0 0 0 0 0 0 1 0 -0 -0 -0 -1 -0 -0 -0 -0 0 0 -0 -0 -0 -0 -0 -0 -0 -0 -0 -0 nan
nan -0 0 0 0 0 -0 -0 0 0 0 0 0 0 0 -0 0 0 0 0 0 0 0 0 -0 -1 -1 0 0 -0 0 -0 -0 -0 -0 -0 -0 0 -0 -1 -0 0 0 -0 nan
nan 0 0 0 0 0 0 0 -0 0 0 0 0 0 0 0 0 0 0 0 0 0 -0 -0 -1 -0 -0 0 -0 -0 -0 -0 0 0 -0 -0 0 -0 -1 -0 0 0 0 -0 nan
nan 0 0 0 0 0 0 0 0 0 0 0 0 0 -0 0 0 0 0 0 0 -0 -0 -0 -0 0 -0 -0 0 0 -0 -0 -0 0 0 0 -0 -0 -0 0 0 0 0 0 nan
nan 0 0 0 0 0 0 0 0 0 0 0 0 0 0 0 0 0 0 0 -0 0 0 0 0 -0 -0 -0 -0 -0 -0 -0 -0 -0 -0 0 -0 -0 -0 -0 0 0 0 0 nan
nan 0 0 0 0 0 0 0 0 0 0 0 0 0 0 0 0 0 0 0 0 0 0 0 0 -0 -0 -0 -1 -1 -0 0 -0 -0 -0 -0 0 -1 -0 -0 -0 0 0 0 nan
nan 0 0 0 0 0 0 0 0 0 0 0 0 -0 0 0 0 -0 0 0 0 0 0 -0 -0 -1 -1 -1 -0 0 0 0 -0 -0 -0 -0 0 -1 -1 -1 -0 0 0 0 nan
nan 0 0 0 0 0 0 0 0 0 0 -0 -0 -0 -0 0 0 -0 0 0 0 0 -0 -0 -1 -1 -0 0 -0 0 0 -0 -0 0 -0 -0 0 -1 -2 -1 -1 -0 0 0 nan
nan 0 0 0 0 0 0 0 0 -0 -0 -0 -0 0 0 0 -0 0 0 0 -0 -1 -0 -1 -1 0 0 0 -0 -0 0 0 -0 0 0 0 0 -0 -1 -0 -0 -0 0 0 nan
nan 0 0 0 0 0 0 -0 -0 0 0 0 0 0 0 0 -0 -0 -0 -0 -1 -0 -0 -0 0 0 -0 0 0 -0 -0 0 0 -0 -0 -0 0 0 0 0 0 1 1 1 nan
nan 0 0 0 0 0 0 -0 -0 0 0 -0 -0 0 0 -0 -0 -0 -0 -0 -0 -0 -0 0 0 -0 -0 -0 -0 -0 -0 0 0 -0 -0 -0 -0 0 -0 0 -0 0 0 0 nan
nan 0 0 0 0 0 0 -0 0 -0 -0 -1 -0 0 0 -0 -0 -0 -0 -0 -0 -0 -0 0 -0 -0 -0 0 -0 -0 0 0 0 0 0 -0 -0 0 -0 0 -0 0 0 0 nan
nan 0 0 0 0 0 0 0 0 -0 -0 -1 -0 -0 -0 -0 -0 -0 -0 -0 -0 -0 0 -0 -0 -0 0 -0 0 0 -0 -0 0 0 -0 -0 0 -0 -0 -0 -0 -0 0 0 nan
nan -0 0 0 0 0 0 0 -0 -1 0 -0 -0 -0 -0 -1 -0 -1 -1 -0 -1 -0 -0 -0 -0 -0 0 0 -0 0 -0 -0 -0 -0 -0 -0 -0 -0 -0 -0 -0 0 -0 -0 nan
nan 0 0 0 0 0 0 -0 -1 1 -0 -0 -0 -0 -0 -0 -0 -1 -1 -1 -0 -0 -0 -0 -0 -0 -0 -0 0 -0 -0 -0 0 -0 -0 -0 0 -0 0 0 0 0 -0 0 nan
nan 0 0 0 0 0 -0 -1 0 -0 -0 -0 -0 -0 -0 -0 -0 -0 -0 -0 0 -0 -0 -0 -0 -0 -0 -0 0 0 -0 -0 0 -0 -0 -0 -0 -0 -0 -0 -1 -1 -1 -1 nan
nan 0 0 0 0 0 0 -1 -0 -0 -0 0 -0 -0 -0 -0 -0 -0 -0 0 0 0 -0 0 -0 -0 -0 -0 0 0 -0 -0 -1 -0 0 -0 -0 -0 0 -0 -1 -1 -1 -0 nan
nan -0 0 0 0 -0 -1 0 0 -0 0 -0 -0 -0 -0 -0 -0 -0 0 0 0 0 -0 0 -0 -0 -0 -0 -0 -0 -0 -0 0 0 -0 -0 -0 -0 -0 -0 -0 -0 -0 -0 nan
nan -0 0 0 0 -1 -1 -1 0 0 -0 -0 -0 -0 -0 -0 -0 -0 0 -0 0 0 -0 -0 -0 -0 -0 -0 -0 -0 -0 -0 -0 -0 0 -0 -0 -0 0 0 0 0 -0 -0 nan
nan -0 0 -0 -1 -1 0 0 0 -0 -0 -0 -0 -0 -0 -0 -0 0 0 -0 -0 -0 -0 0 -0 -0 -0 0 0 -0 -0 -0 -0 -0 0 0 -1 -0 -0 -0 -0 0 -0 -0 nan
nan 0 0 -0 -1 0 -0 0 0 -0 -0 0 -0 -0 -0 -0 0 -0 -0 -0 -0 -0 -0 -0 0 0 -1 -0 -0 0 0 -0 -0 0 -0 -0 -0 0 -0 -0 0 0 -0 -0 nan
nan -0 0 -1 -1 -0 0 0 0 -0 -0 -0 0 -0 -0 -0 -0 0 -0 -0 -0 -0 -0 -0 -0 -0 0 -0 0 -0 0 0 -0 -0 -0 -0 -1 -0 1 -0 -0 -0 0 -0 nan
nan -0 -0 0 0 0 0 0 0 0 -0 -0 -0 -0 -0 -0 0 0 -0 -0 -0 -0 -0 -0 0 0 -0 0 -0 -0 0 0 0 -0 -0 0 0 -0 0 -0 -0 -0 -0 0 nan
nan -0 -0 -0 0 -0 -0 0 -0 0 -0 -0 -0 0 -0 -0 -0 -0 -0 -0 0 -0 -0 -0 0 -0 0 -0 -0 -0 -0 -0 -0 0 -0 0 -0 -1 -0 0 -0 -0 -0 -0 nan
nan nan nan nan nan nan nan nan nan nan nan nan nan nan nan nan nan nan nan nan nan nan nan nan nan nan nan nan nan nan nan nan nan nan nan nan nan nan nan nan nan nan nan nan nan
Wind_Speed
11 10 10 8 7 7 8 8 8 8 7 10 8 7 5 6 10 14 17 15 16 13 10 4 2 6 11 8 6 5 5 2 2 3 2 2 2 2 3 6 3 3 8 6 22
9 8 8 7 7 8 9 9 10 9 10 10 7 7 4 9 16 19 17 19 16 14 13 8 12 13 9 5 5 6 5 3 3 3 0 3 2 3 2 2 1 3 4 15 23
5 5 6 6 8 9 10 11 11 12 13 8 7 6 2 8 12 14 15 16 17 14 18 11 15 15 9 12 6 3 4 3 2 2 1 2 2 1 10 2 9 11 13 20 22
3 5 6 8 10 11 13 13 12 15 11 7 8 6 3 3 4 11 12 13 14 13 15 14 17 10 6 5 5 6 4 3 2 3 3 2 2 2 8 6 7 9 14 20 21
4 7 8 10 13 14 15 14 15 13 8 6 6 4 8 10 8 14 10 10 12 13 17 17 17 6 4 4 4 4 2 4 3 5 4 3 3 4 13 9 7 10 16 21 18
8 11 14 16 17 16 15 13 13 11 7 6 6 7 8 9 12 13 10 6 8 14 16 18 12 6 8 4 5 2 2 3 2 2 2 2 3 3 4 4 11 13 18 21 18
15 17 18 17 16 15 14 14 12 9 8 8 8 8 12 8 10 13 11 8 7 11 13 13 13 8 2 3 7 4 4 6 9 5 2 1 5 6 9 7 8 16 20 22 18
16 16 16 16 15 14 14 13 11 10 7 8 9 9 7 8 8 9 13 3 4 8 8 8 10 8 6 3 7 6 6 5 6 4 5 3 8 13 8 6 17 14 20 24 21
14 16 16 16 16 15 14 12 11 9 6 7 8 7 4 6 11 13 19 9 6 8 7 6 6 6 7 5 5 7 1 2 7 6 5 3 8 12 13 20 23 12 20 24 23
15 16 17 16 14 12 12 12 12 7 6 7 10 6 9 9 11 12 10 8 6 6 5 7 6 5 5 6 1 2 2 3 2 5 7 5 7 9 19 12 16 10 11 22 18
14 16 16 14 12 11 12 13 6 6 14 10 6 4 6 6 13 17 9 7 8 10 5 7 7 3 3 1 1 1 1 3 3 2 5 3 6 9 15 10 6 1 8 10 9
13 15 14 12 11 12 10 8 8 5 8 9 9 7 9 10 10 22 13 6 8 3 2 6 4 1 6 5 4 3 2 4 5 3 0 5 8 6 11 7 8 11 14 15 14
12 13 13 11 10 9 8 13 8 5 5 6 7 6 5 7 8 15 14 5 6 5 5 5 1 5 4 5 6 4 2 3 5 6 1 6 4 6 4 11 13 11 10 12 11
11 11 10 9 7 12 12 8 6 3 5 7 5 4 6 3 5 18 11 5 6 3 2 3 4 5 5 4 2 3 2 2 5 2 1 4 2 5 6 3 7 5 6 8 7
11 10 9 7 8 9 9 5 3 2 5 4 4 3 6 6 2 17 12 5 4 4 4 1 3 5 6 2 1 7 4 2 1 3 3 8 4 6 6 4 2 2 7 5 6
11 10 9 7 8 8 6 3 2 7 0 2 2 4 4 10 6 9 16 8 7 5 6 2 2 3 2 3 2 6 4 5 4 2 3 3 3 5 3 4 4 4 1 4 5
11 11 10 8 6 5 4 2 5 6 3 2 2 3 5 6 5 7 7 9 4 4 6 6 3 6 4 5 6 9 6 3 5 5 3 3 1 5 6 4 2 1 8 9 7
8 9 10 8 4 5 4 5 6 3 1 1 2 4 4 3 4 6 3 5 5 5 3 4 5 5 6 1 2 3 4 4 2 1 4 5 3 3 3 15 22 20 17 12 9
9 9 9 8 7 6 2 5 6 5 1 2 3 4 3 3 4 4 4 2 3 4 3 4 3 5 1 3 1 2 4 2 5 2 3 3 5 5 3 8 16 13 9 8 8
11 12 10 9 7 4 5 3 1 3 1 2 3 1 2 5 3 4 2 1 2 5 0 1 2 1 4 1 8 6 4 4 3 2 3 5 5 4 6 8 7 7 8 9 7
3 5 6 7 5 3 4 4 2 4 3 3 2 3 3 2 3 2 1 2 1 2 7 2 2 5 1 5 1 4 3 5 4 3 3 3 6 5 4 4 5 4 8 11 9
2 4 3 4 4 3 2 1 2 3 7 5 5 3 3 3 4 2 2 2 5 3 3 2 4 3 4 1 1 2 3 4 4 3 1 3 6 4 7 1 4 1 8 13 14
4 4 6 3 3 2 0 3 5 3 5 3 3 4 4 3 4 3 3 3 5 3 2 1 2 4 8 5 5 4 1 4 5 3 6 3 6 0 14 16 2 6 11 18 24
3 2 5 6 6 6 4 2 3 6 6 8 4 5 5 5 6 2 2 3 6 3 5 3 2 5 5 7 5 5 4 4 5 3 4 11 17 19 15 9 13 14 17 23 29
3 2 2 0 4 5 4 2 3 3 4 6 5 4 4 3 3 2 2 4 4 3 3 4 2 4 6 9 8 11 11 8 8 8 6 15 8 12 11 8 8 17 26 27 30
3 5 5 5 3 4 5 1 3 2 3 2 6 2 3 4 4 3 3 2 5 2 2 3 3 1 4 4 5 7 11 11 9 7 11 14 15 12 7 5 17 28 29 27 30
4 8 4 3 3 4 2 3 4 7 5 4 12 4 3 4 4 3 6 5 2 1 2 0 3 2 5 4 9 6 4 4 3 6 5 6 9 2 3 14 22 27 27 29 20
Wind_Direction
257 249 245 239 228 216 205 196 178 170 151 134 120 60 59 92 84 70 44 25 15 27 38 76 41 82 91 87 76 91 64 80 139 123 249 6 99 90 93 148 142 159 162 155 171
253 243 235 220 206 200 183 174 169 158 133 137 87 38 97 112 83 59 45 36 43 33 50 109 111 89 71 80 51 80 88 168 182 167 121 28 86 121 117 92 95 140 155 160 177
246 225 211 197 185 179 166 164 158 135 149 121 65 45 97 118 78 43 46 42 38 34 51 101 94 83 72 58 33 72 129 193 35 80 168 308 333 143 135 229 195 185 176 172 183
207 187 175 168 169 161 154 159 138 152 135 89 54 53 115 116 97 29 48 40 38 42 65 85 79 80 60 70 45 86 105 140 181 182 158 238 301 278 216 226 207 202 185 181 190
150 144 144 148 148 147 150 141 148 138 119 70 59 98 118 91 43 34 58 46 45 60 59 60 55 63 74 65 80 80 135 180 177 180 214 226 247 268 265 258 232 215 188 193 197
121 124 131 134 138 140 135 139 136 131 103 83 67 99 102 75 40 29 30 43 66 56 55 51 41 64 76 68 78 9 354 326 345 219 237 220 278 355 303 268 248 219 200 199 202
119 122 125 128 128 128 135 133 132 116 103 69 67 96 80 56 31 24 22 26 30 22 43 32 28 65 70 103 20 48 31 17 17 334 308 294 323 234 257 309 281 230 212 203 210
114 118 119 117 119 128 129 127 123 114 92 60 60 89 75 42 41 16 10 17 18 39 31 34 44 69 43 44 33 45 45 28 329 16 39 61 275 287 284 294 309 257 222 211 213
113 111 108 110 113 115 119 120 119 113 73 42 60 79 51 47 30 20 3 34 68 31 45 49 68 59 34 59 28 11 76 338 321 58 15 52 275 278 312 304 292 285 232 216 217
114 112 110 106 104 108 118 115 105 89 55 50 51 86 35 14 9 3 4 45 46 73 69 52 53 62 30 47 207 299 344 311 281 323 5 321 276 290 321 290 295 296 228 207 210
118 115 110 104 92 99 113 114 104 73 64 63 45 75 39 25 34 22 44 61 50 51 48 21 64 59 352 52 218 179 227 288 259 275 349 315 291 312 353 40 22 62 152 171 163
122 119 114 101 90 103 111 95 96 109 66 52 54 70 45 36 27 26 40 77 57 58 26 32 71 3 106 57 64 26 4 305 296 284 37 345 318 320 10 26 49 99 117 121 115
130 127 125 116 93 124 122 110 89 102 86 32 21 32 28 27 30 12 25 43 60 46 28 116 50 56 89 34 32 329 206 246 241 327 45 332 355 360 3 60 76 84 106 116 110
148 146 143 135 117 127 122 104 68 89 75 314 358 24 16 8 54 25 27 39 36 75 66 60 26 76 56 52 64 310 176 273 272 63 224 22 256 343 337 31 49 73 128 143 146
171 163 161 156 140 130 129 100 55 64 68 279 335 20 22 73 319 3 20 67 58 28 74 283 39 51 46 310 196 245 339 272 244 139 88 351 70 294 352 5 21 198 190 190 199
180 177 168 144 142 134 130 90 55 45 42 354 12 10 47 34 40 23 39 68 61 67 28 11 352 48 300 310 354 294 35 43 47 79 46 325 102 303 318 300 330 9 274 257 245
173 180 175 156 142 145 141 112 46 101 284 13 58 59 72 19 40 32 22 32 47 41 8 340 356 326 18 5 352 22 41 357 6 12 211 291 44 227 313 9 345 49 357 326 300
142 162 175 183 180 161 154 55 77 247 281 7 62 63 85 7 34 17 51 28 14 51 78 42 341 2 341 20 290 9 94 130 193 312 279 311 200 200 16 54 21 354 346 330 325
116 129 143 148 152 155 150 58 184 209 251 88 58 74 16 22 109 81 58 61 10 4 84 39 295 322 336 328 47 326 45 159 105 14 38 278 316 290 152 24 359 342 346 32 47
113 101 103 131 139 139 77 165 114 210 89 73 105 15 114 353 69 73 37 301 336 29 148 340 324 281 294 24 32 94 138 33 11 53 312 307 292 246 28 342 346 20 34 25 27
123 94 76 122 134 95 122 209 152 47 130 60 112 89 77 75 57 60 47 309 11 15 64 57 83 292 11 35 11 2 26 56 105 110 176 294 268 205 161 330 333 39 13 3 352
90 70 69 129 59 44 96 81 114 8 72 71 86 86 82 56 59 84 115 42 17 7 42 358 136 296 254 169 280 95 115 100 109 301 219 164 268 303 128 227 118 293 343 343 333
94 100 51 127 115 352 185 67 70 43 31 67 74 60 52 73 88 51 64 26 28 63 101 177 3 3 345 20 8 85 185 104 95 78 222 218 264 134 298 335 274 304 322 332 327
115 53 53 71 92 120 113 67 97 53 64 68 85 81 71 45 20 106 45 358 1 39 79 98 117 156 199 241 238 259 198 189 148 218 249 240 272 285 287 297 295 302 315 324 328
72 85 104 259 12 95 84 101 108 87 74 55 42 59 121 85 34 49 9 340 354 58 58 88 208 189 242 259 277 278 276 258 206 227 225 268 254 267 274 264 277 303 318 313 317
109 137 98 83 92 87 12 41 123 112 81 55 118 101 94 135 164 212 181 199 241 13 77 21 260 292 274 313 304 275 256 250 263 246 238 257 268 264 281 289 323 315 311 305 315
125 133 132 7 61 80 233 156 152 122 45 129 148 105 77 181 189 231 243 262 287 175 175 325 126 65 278 335 323 328 260 184 223 234 207 254 276 292 329 323 318 311 317 316 319
Height
1498 1498 1499 1500 1502 1503 1503 1505 1507 1510 1512 1514 1515 1513 1513 1514 1515 1514 1512 1514 1511 1510 1508 1507 1507 1507 1506 1507 1507 1509 1528 1540 1533 1531 1529 1526 1529 1529 1529 1530 1531 1531 1530 1531 1534
1495 1496 1497 1498 1500 1501 1502 1504 1507 1511 1512 1514 1513 1513 1513 1515 1515 1514 1515 1513 1512 1511 1508 1507 1507 1508 1507 1509 1510 1511 1532 1529 1529 1528 1529 1527 1527 1530 1530 1531 1531 1530 1531 1533 1535
1494 1494 1495 1497 1498 1499 1501 1505 1509 1510 1514 1514 1514 1514 1514 1514 1515 1517 1515 1515 1513 1514 1509 1508 1508 1507 1509 1509 1514 1515 1528 1526 1525 1527 1528 1531 1530 1529 1529 1533 1529 1527 1530 1531 1535
1493 1493 1494 1496 1496 1499 1502 1507 1509 1513 1514 1513 1514 1515 1514 1515 1523 1518 1516 1514 1515 1513 1509 1512 1508 1511 1511 1515 1515 1521 1522 1525 1526 1529 1529 1531 1530 1528 1531 1527 1527 1527 1528 1529 1533
1492 1493 1494 1495 1498 1501 1505 1508 1511 1512 1514 1515 1516 1515 1516 1518 1519 1517 1515 1515 1514 1514 1511 1510 1511 1515 1515 1515 1518 1520 1524 1526 1526 1528 1527 1528 1528 1529 1528 1527 1526 1526 1527 1530 1532
1492 1493 1495 1498 1501 1504 1506 1510 1512 1514 1516 1517 1516 1515 1516 1517 1518 1517 1514 1516 1516 1518 1512 1515 1517 1519 1516 1519 1521 1519 1522 1522 1526 1526 1525 1528 1527 1527 1525 1524 1524 1524 1526 1529 1531
1495 1496 1498 1501 1503 1505 1508 1511 1514 1515 1517 1517 1516 1517 1517 1519 1517 1516 1516 1516 1518 1517 1516 1519 1517 1516 1519 1519 1520 1519 1524 1523 1524 1524 1526 1527 1527 1525 1524 1523 1523 1523 1525 1527 1529
1498 1500 1501 1502 1504 1508 1510 1513 1515 1516 1518 1518 1517 1516 1517 1519 1519 1519 1518 1518 1519 1518 1517 1517 1518 1517 1519 1519 1522 1528 1532 1542 1529 1527 1528 1529 1537 1522 1523 1522 1520 1521 1522 1525 1528
1502 1503 1504 1506 1508 1510 1512 1514 1516 1517 1518 1518 1517 1517 1520 1521 1520 1519 1518 1517 1518 1518 1517 1518 1520 1522 1521 1527 1538 1541 1548 1543 1537 1530 1531 1531 1535 1522 1521 1520 1516 1518 1520 1524 1527
1505 1507 1508 1510 1512 1513 1514 1516 1517 1518 1518 1517 1519 1521 1523 1524 1522 1521 1520 1520 1519 1519 1520 1521 1522 1527 1532 1537 1555 1546 1545 1541 1540 1533 1532 1534 1533 1523 1518 1516 1515 1515 1516 1522 1527
1508 1510 1511 1512 1514 1515 1516 1517 1521 1522 1520 1522 1524 1525 1525 1525 1524 1522 1519 1520 1520 1521 1528 1525 1535 1542 1536 1535 1536 1538 1541 1543 1539 1534 1536 1535 1534 1525 1517 1515 1514 1516 1519 1523 1528
1510 1511 1513 1514 1515 1516 1517 1518 1521 1524 1525 1525 1526 1526 1526 1525 1524 1523 1522 1522 1524 1530 1528 1534 1540 1535 1536 1536 1537 1537 1541 1546 1539 1535 1536 1534 1532 1525 1521 1521 1520 1521 1523 1525 1527
1512 1513 1515 1517 1517 1519 1519 1521 1522 1523 1525 1528 1528 1528 1528 1529 1529 1527 1526 1526 1527 1531 1534 1540 1538 1535 1536 1540 1542 1541 1541 1542 1545 1539 1535 1537 1534 1531 1526 1525 1524 1525 1526 1527 1528
1514 1515 1517 1518 1521 1520 1521 1523 1523 1524 1538 1536 1531 1531 1531 1529 1531 1530 1528 1530 1530 1535 1535 1538 1537 1537 1540 1541 1542 1546 1537 1539 1542 1544 1550 1540 1552 1537 1535 1529 1529 1529 1529 1529 1530
1515 1517 1518 1520 1520 1521 1524 1523 1524 1525 1572 1537 1533 1532 1531 1532 1534 1534 1531 1530 1536 1537 1539 1544 1540 1542 1543 1542 1541 1543 1537 1538 1537 1543 1546 1548 1555 1544 1536 1532 1532 1530 1530 1531 1530
1515 1517 1519 1520 1521 1522 1523 1524 1526 1547 1562 1538 1534 1533 1534 1534 1536 1538 1534 1533 1536 1538 1540 1543 1541 1542 1542 1539 1539 1537 1538 1540 1545 1548 1562 1552 1555 1553 1544 1538 1535 1534 1533 1532 1532
1515 1517 1519 1520 1522 1523 1524 1526 1545 1563 1539 1541 1538 1535 1539 1542 1542 1543 1545 1546 1553 1551 1560 1550 1546 1544 1542 1543 1540 1541 1549 1569 1569 1575 1571 1552 1556 1550 1539 1536 1535 1534 1534 1533 1533
1515 1517 1519 1521 1522 1523 1525 1530 1551 1545 1541 1537 1537 1539 1544 1544 1548 1549 1551 1558 1553 1555 1566 1566 1566 1549 1545 1547 1548 1548 1554 1578 1574 1590 1578 1555 1554 1547 1538 1538 1538 1535 1534 1533 1531
1516 1517 1519 1521 1523 1525 1527 1553 1554 1546 1539 1538 1540 1545 1547 1545 1547 1552 1558 1560 1558 1556 1563 1571 1561 1549 1547 1547 1548 1549 1563 1558 1577 1602 1592 1565 1550 1540 1538 1540 1539 1536 1533 1533 1532
1518 1519 1520 1522 1524 1526 1531 1546 1539 1538 1537 1538 1546 1547 1551 1552 1551 1554 1558 1558 1557 1557 1555 1560 1566 1552 1549 1547 1548 1550 1555 1568 1577 1592 1584 1566 1559 1551 1546 1545 1541 1539 1537 1536 1535
1519 1520 1523 1523 1525 1526 1545 1545 1538 1537 1537 1540 1545 1548 1551 1551 1553 1558 1560 1558 1557 1557 1557 1559 1565 1559 1552 1557 1558 1559 1564 1566 1569 1580 1592 1587 1567 1544 1544 1543 1540 1539 1539 1538 1537
1519 1522 1524 1524 1527 1533 1539 1536 1537 1538 1538 1540 1543 1547 1550 1553 1557 1557 1559 1558 1558 1558 1561 1562 1570 1575 1558 1555 1555 1556 1561 1566 1585 1582 1588 1596 1564 1539 1538 1539 1538 1538 1537 1537 1535
1520 1522 1524 1524 1539 1544 1537 1538 1539 1539 1541 1542 1546 1547 1550 1556 1561 1558 1559 1560 1559 1559 1561 1562 1574 1585 1567 1562 1559 1560 1561 1565 1575 1581 1575 1579 1560 1537 1537 1536 1537 1537 1535 1534 1531
1520 1526 1524 1524 1528 1533 1537 1540 1542 1542 1544 1545 1549 1549 1553 1559 1559 1561 1562 1560 1559 1559 1560 1560 1571 1574 1585 1572 1566 1565 1562 1563 1566 1573 1565 1562 1548 1538 1537 1536 1534 1533 1532 1529 1525
1521 1525 1527 1535 1534 1534 1536 1539 1543 1545 1545 1547 1551 1552 1555 1564 1564 1565 1563 1562 1560 1560 1560 1563 1571 1571 1569 1565 1561 1558 1558 1558 1564 1560 1562 1545 1548 1537 1534 1533 1532 1531 1529 1525 1521
1521 1524 1527 1532 1534 1535 1539 1541 1543 1545 1546 1549 1552 1554 1555 1560 1561 1564 1563 1563 1563 1561 1563 1565 1574 1569 1569 1567 1565 1563 1554 1552 1552 1551 1550 1546 1543 1531 1530 1531 1531 1528 1524 1520 1517
1522 1524 1526 1535 1536 1539 1543 1541 1542 1543 1549 1548 1550 1555 1559 1558 1558 1559 1559 1560 1560 1562 1565 1567 1575 1580 1577 1571 1567 1563 1544 1545 1543 1541 1540 1542 1532 1529 1530 1529 1526 1521 1518 1515 1513